ATLAS 5 CENTAUR DEB, 43976

Orbit data source: Space-Track

ATLAS 5 CENTAUR DEB, 43976 is space debris in HEO originally from a launch on Wed, 17 Sep 2014 UTC launched from the Air Force Eastern Test Range (AFETR). Debris objects in space refer to the collection of defunct objects orbiting the Earth. Examples of debris include non-operational satellites, rocket bodies, and fragments generated from explosions, collisions, or faulty payload assembly.

Loading next visibility...
Identifier
43976, 2014-055AF
Orbit
HEO
Country
Flag of USUS
Related business
Flag of USUnited Launch Alliance/Lockheed Martin (US)
Manufacturer
Unknown
Mission
Spacecraft
Bus & Motor
Unknown
Mass
Unknown
Launch date (UTC)
2014-09-17 (11 years ago)
Launch vehicle
Unknown
Launch site
Air Force Eastern Test Range (AFETR)
Object type
Payload
Rocket body
Debris
Shape & HBR
Unknown shape, 1.1 m
Radar Cross Section
Small (<0.1 m²)

Expand to show TLE details & history
Last TLE update: 1 week ago

TLE from 1 week ago
0 ATLAS 5 CENTAUR DEB
1 43976U 14055AF  25297.51770118 -.00000004  00000-0  00000-0 0  9994
2 43976  19.5054 171.7790 4837870 112.3055 304.8617  1.83496108 47876
Epoch: 2025-10-24T12:25Z
TLE epoch observation values (Epoch: 2025-10-24T12:25:29.381Z)
Latitude
-0.00001°
Longitude
-47.65926°
Altitude
20,040.395 km
Speed
4.004 km/s
True Right ascension
11h 27m 29s
True Declination
0° 00' 00"
Sunlit
Object was in daylight at epoch
Visualization orbit readout
Latitude
Unknown
Longitude
Unknown
Altitude
Unknown
Speed
Unknown
Apparent Right ascension
Unknown
Apparent Declination
Unknown
Sunlit
N/A
Visualization observer readout
Local Sidereal Time
10:04:17
Azimuth
Unknown
Elevation
Unknown
Doppler factor
Unknown
Orbital elements
Apogee altitude
35,442.022 km
Perigee altitude
8,171.195 km
Semi-major axis
28,184.746 km
Eccentricity
0.48379
Inclination
19.5054°
RAAN
171.779°
Arg. of periapsis
112.3055°
True anomaly
247.72795°
Mean anomaly
304.8617°
Eccentric anomaly
277.37186°
Mean motion
0.45869 °/min
Orbital period
784.84 mins
BSTAR
0
Loading maneuver chart data...
Computing Atmospheric mass density...

Documentation

Showing up to 5 results
|